Weather History for KOLM - October, 2012

Change the Weather History Date:

Wednesday, October 31, 2012

  Actual Average Record
Temperature  
Mean Temperature 55 °F 47 °F  
Max Temperature 59 °F 55 °F 74 °F (1949)
Min Temperature 51 °F 39 °F 14 °F (2002)
Degree Days  
Heating Degree Days 10 18  
Month to date heating degree days 433 454  
Since 1 July heating degree days 778 794  
Cooling Degree Days 0 0  
Month to date cooling degree days 0 0  
Year to date cooling degree days 82 106  
Growing Degree Days 6 (Base 50)    
Moisture  
Dew Point 55 °F    
Average Humidity 93    
Maximum Humidity 100    
Minimum Humidity 86    
Precipitation  
Precipitation 1.05 in 0.22 in 2.95 in (1994)
Month to date precipitation 8.07 4.60  
Year to date precipitation 40.70 33.91  
Sea Level Pressure  
Sea Level Pressure 29.69 in    
Wind  
Wind Speed 6 mph (South)    
Max Wind Speed 18 mph    
Max Gust Speed 28 mph    
Visibility 6 miles    
Events Rain    
T = Trace of Precipitation, MM = Missing Value Source: NWS Daily Summary

Daily Weather History Graph

Daily Weather History Graph

Search for Another Location

Airport or City:

Trip Planner

Search our weather history database for the weather conditions in past years. The results will help you decide how hot, cold, wet, or windy it might be!

Date:

Astronomy

Oct. 31, 2012 Rise Set
Actual Time 7:53 AM PDT 5:56 PM PDT
Civil Twilight 7:21 AM PDT 6:27 PM PDT
Nautical Twilight 6:45 AM PDT 7:03 PM PDT
Astronomical Twilight 6:10 AM PDT 7:39 PM PDT
Moon 7:03 PM PDT (10/31) 9:46 AM PDT (10/31)
Length of Visible Light 11h 05m
Length of Day
10h 02m
Waning Gibbous, 97% of the Moon is Illuminated
Oct 31
Waning Gibbous
Nov 6
Last Quarter
Nov 13
New
Nov 20
First Quarter
Nov 28
Full

Hourly Weather History & Observations

Time (PDT) Temp. Dew Point Humidity Pressure Visibility Wind Dir Wind Speed Gust Speed Precip Events Conditions
12:04 AM 57.2 °F 57.2 °F 100% 29.75 in 3.0 mi SW 5.8 mph - 0.03 in Rain Rain
12:49 AM 57.2 °F 57.2 °F 100% 29.76 in 7.0 mi SSW 4.6 mph - 0.06 in Rain Light Rain
12:54 AM 57.9 °F 57.0 °F 97% 29.76 in 6.0 mi SSW 3.5 mph - 0.06 in Rain Light Rain
1:54 AM 57.0 °F 55.9 °F 96% 29.75 in 4.0 mi SSW 3.5 mph - 0.04 in Rain Light Rain
2:26 AM 55.4 °F 55.4 °F 100% 29.73 in 2.5 mi Calm Calm - 0.05 in Rain Light Rain
2:34 AM 55.4 °F 55.4 °F 100% 29.73 in 1.8 mi Calm Calm - 0.08 in Rain Heavy Rain
2:44 AM 55.4 °F 55.4 °F 100% 29.73 in 2.0 mi Calm Calm - 0.13 in Rain Rain
2:54 AM 55.9 °F 55.0 °F 97% 29.73 in 2.0 mi Calm Calm - 0.17 in Rain Rain
2:58 AM 55.4 °F 55.4 °F 100% 29.72 in 3.0 mi Calm Calm - 0.00 in Rain Light Rain
3:11 AM 55.4 °F 55.4 °F 100% 29.72 in 3.0 mi Calm Calm - 0.02 in Rain Light Rain
3:35 AM 55.4 °F 55.4 °F 100% 29.71 in 2.0 mi Calm Calm - 0.07 in Rain Rain
3:51 AM 55.4 °F 55.4 °F 100% 29.71 in 4.0 mi Calm Calm - 0.12 in Rain Light Rain
3:54 AM 55.9 °F 55.0 °F 97% 29.71 in 4.0 mi Calm Calm - 0.12 in Rain Light Rain
4:02 AM 55.4 °F 55.4 °F 100% 29.71 in 4.0 mi Calm Calm - 0.02 in Rain Rain
4:19 AM 55.4 °F 55.4 °F 100% 29.70 in 5.0 mi Calm Calm - 0.05 in Rain Rain
4:47 AM 55.4 °F 55.4 °F 100% 29.69 in 2.5 mi Calm Calm - 0.14 in Rain Rain
4:54 AM 55.9 °F 55.0 °F 97% 29.69 in 4.0 mi Calm Calm - 0.16 in Rain Rain
5:38 AM 55.4 °F 55.4 °F 100% 29.67 in 4.0 mi Calm Calm - 0.07 in Rain Light Rain
5:54 AM 55.9 °F 55.0 °F 97% 29.67 in 5.0 mi ENE 3.5 mph - 0.09 in Rain Light Rain
6:54 AM 55.9 °F 55.0 °F 97% 29.65 in 6.0 mi ESE 4.6 mph - 0.08 in Rain Light Rain
7:54 AM 55.9 °F 55.0 °F 97% 29.64 in 9.0 mi Calm Calm - 0.05 in Rain Light Rain
8:54 AM 57.0 °F 55.0 °F 93% 29.65 in 4.0 mi Calm Calm - 0.04 in Rain Light Rain
9:54 AM 57.0 °F 55.0 °F 93% 29.64 in 7.0 mi Calm Calm - 0.05 in Rain Light Rain
10:54 AM 57.9 °F 55.0 °F 90% 29.63 in 10.0 mi South 6.9 mph - 0.03 in Rain Light Rain
11:54 AM 59.0 °F 55.0 °F 87% 29.63 in 8.0 mi South 9.2 mph - 0.02 in Rain Light Rain
12:36 PM 57.2 °F 55.4 °F 94% 29.63 in 4.0 mi SSW 6.9 mph - 0.02 in Rain Light Rain
12:54 PM 57.9 °F 55.9 °F 93% 29.63 in 10.0 mi South 15.0 mph 27.6 mph 0.02 in Rain Light Rain
1:35 PM 57.2 °F 55.4 °F 94% 29.63 in 4.0 mi South 17.3 mph 25.3 mph 0.02 in Rain Light Rain
1:54 PM 57.9 °F 55.0 °F 90% 29.63 in 3.0 mi South 9.2 mph 20.7 mph 0.05 in Rain Rain
1:57 PM 57.2 °F 55.4 °F 94% 29.63 in 10.0 mi South 10.4 mph - 0.01 in Rain Rain
2:13 PM 57.2 °F 55.4 °F 94% 29.64 in 10.0 mi SSW 10.4 mph 18.4 mph 0.02 in Rain Light Rain
2:29 PM 57.2 °F 55.4 °F 94% 29.64 in 10.0 mi South 16.1 mph 21.9 mph 0.03 in Rain Light Rain
2:54 PM 57.9 °F 55.0 °F 90% 29.65 in 10.0 mi South 16.1 mph 25.3 mph 0.04 in Rain Light Rain
3:54 PM 57.0 °F 54.0 °F 89% 29.67 in 10.0 mi South 18.4 mph 24.2 mph 0.00 in Rain Light Rain
4:54 PM 57.2 °F 53.6 °F 88% 29.67 in 10.0 mi South 13.8 mph - N/A Rain Light Rain
5:37 PM 55.4 °F 53.6 °F 94% 29.69 in 10.0 mi SSW 6.9 mph - 0.05 in Rain Light Rain
5:50 PM 55.4 °F 53.6 °F 94% 29.69 in 10.0 mi SSW 11.5 mph - 0.05 in   Mostly Cloudy
5:54 PM 55.9 °F 53.1 °F 90% 29.69 in 10.0 mi SSW 11.5 mph - 0.05 in   Overcast
6:08 PM 55.4 °F 53.6 °F 94% 29.69 in 10.0 mi South 12.7 mph - N/A   Overcast
6:54 PM 55.0 °F 52.0 °F 89% 29.70 in 10.0 mi South 9.2 mph - 0.00 in   Mostly Cloudy
7:54 PM 55.0 °F 51.1 °F 86% 29.70 in 10.0 mi South 8.1 mph - 0.00 in   Overcast
8:54 PM 54.0 °F 51.1 °F 90% 29.70 in 8.0 mi SSW 3.5 mph - 0.00 in Rain Light Rain
9:54 PM 53.1 °F 51.1 °F 93% 29.71 in 9.0 mi Calm Calm - 0.01 in Rain Light Rain
10:54 PM 53.1 °F 51.1 °F 93% 29.71 in 10.0 mi West 4.6 mph - 0.00 in   Overcast
11:54 PM 52.0 °F 52.0 °F 100% 29.71 in 5.0 mi Calm Calm - 0.02 in Rain Light Rain